Index of /20260503/WXO-DD/model_caps/3km/12/026
Name Last modified Size Description
Parent Directory -
20260503T12Z_MSC_CAPS_AbsoluteVorticity_IsbL-0250_RLatLon0.03_PT026H.grib2 2026-05-03 18:16 1.1M
20260503T12Z_MSC_CAPS_AbsoluteVorticity_IsbL-0500_RLatLon0.03_PT026H.grib2 2026-05-03 18:16 1.1M
20260503T12Z_MSC_CAPS_AbsoluteVorticity_IsbL-0700_RLatLon0.03_PT026H.grib2 2026-05-03 18:16 1.1M
20260503T12Z_MSC_CAPS_AbsoluteVorticity_IsbL-0850_RLatLon0.03_PT026H.grib2 2026-05-03 18:16 1.2M
20260503T12Z_MSC_CAPS_AbsoluteVorticity_IsbL-1000_RLatLon0.03_PT026H.grib2 2026-05-03 18:16 1.4M
20260503T12Z_MSC_CAPS_AirDensity_AGL-120m_RLatLon0.03_PT026H.grib2 2026-05-03 18:16 1.4M
20260503T12Z_MSC_CAPS_AirDensity_AGL-40m_RLatLon0.03_PT026H.grib2 2026-05-03 18:16 1.4M
20260503T12Z_MSC_CAPS_AirDensity_AGL-80m_RLatLon0.03_PT026H.grib2 2026-05-03 18:16 1.4M
20260503T12Z_MSC_CAPS_AirTemp_AGL-120m_RLatLon0.03_PT026H.grib2 2026-05-03 18:16 1.4M
20260503T12Z_MSC_CAPS_AirTemp_AGL-2m_RLatLon0.03_PT026H.grib2 2026-05-03 18:16 1.7M
20260503T12Z_MSC_CAPS_AirTemp_AGL-40m_RLatLon0.03_PT026H.grib2 2026-05-03 18:16 1.5M
20260503T12Z_MSC_CAPS_AirTemp_AGL-80m_RLatLon0.03_PT026H.grib2 2026-05-03 18:16 1.4M
20260503T12Z_MSC_CAPS_AirTemp_IsbL-0050_RLatLon0.03_PT026H.grib2 2026-05-03 18:16 686K
20260503T12Z_MSC_CAPS_AirTemp_IsbL-0100_RLatLon0.03_PT026H.grib2 2026-05-03 18:16 963K
20260503T12Z_MSC_CAPS_AirTemp_IsbL-0150_RLatLon0.03_PT026H.grib2 2026-05-03 18:16 746K
20260503T12Z_MSC_CAPS_AirTemp_IsbL-0175_RLatLon0.03_PT026H.grib2 2026-05-03 18:16 767K
20260503T12Z_MSC_CAPS_AirTemp_IsbL-0200_RLatLon0.03_PT026H.grib2 2026-05-03 18:16 788K
20260503T12Z_MSC_CAPS_AirTemp_IsbL-0225_RLatLon0.03_PT026H.grib2 2026-05-03 18:16 795K
20260503T12Z_MSC_CAPS_AirTemp_IsbL-0250_RLatLon0.03_PT026H.grib2 2026-05-03 18:16 787K
20260503T12Z_MSC_CAPS_AirTemp_IsbL-0275_RLatLon0.03_PT026H.grib2 2026-05-03 18:16 776K
20260503T12Z_MSC_CAPS_AirTemp_IsbL-0300_RLatLon0.03_PT026H.grib2 2026-05-03 18:16 1.0M
20260503T12Z_MSC_CAPS_AirTemp_IsbL-0350_RLatLon0.03_PT026H.grib2 2026-05-03 18:16 745K
20260503T12Z_MSC_CAPS_AirTemp_IsbL-0400_RLatLon0.03_PT026H.grib2 2026-05-03 18:16 753K
20260503T12Z_MSC_CAPS_AirTemp_IsbL-0450_RLatLon0.03_PT026H.grib2 2026-05-03 18:16 771K
20260503T12Z_MSC_CAPS_AirTemp_IsbL-0500_RLatLon0.03_PT026H.grib2 2026-05-03 18:16 786K
20260503T12Z_MSC_CAPS_AirTemp_IsbL-0550_RLatLon0.03_PT026H.grib2 2026-05-03 18:16 802K
20260503T12Z_MSC_CAPS_AirTemp_IsbL-0600_RLatLon0.03_PT026H.grib2 2026-05-03 18:16 1.0M
20260503T12Z_MSC_CAPS_AirTemp_IsbL-0650_RLatLon0.03_PT026H.grib2 2026-05-03 18:16 1.0M
20260503T12Z_MSC_CAPS_AirTemp_IsbL-0700_RLatLon0.03_PT026H.grib2 2026-05-03 18:16 1.0M
20260503T12Z_MSC_CAPS_AirTemp_IsbL-0750_RLatLon0.03_PT026H.grib2 2026-05-03 18:16 1.0M
20260503T12Z_MSC_CAPS_AirTemp_IsbL-0800_RLatLon0.03_PT026H.grib2 2026-05-03 18:16 1.1M
20260503T12Z_MSC_CAPS_AirTemp_IsbL-0850_RLatLon0.03_PT026H.grib2 2026-05-03 18:16 1.1M
20260503T12Z_MSC_CAPS_AirTemp_IsbL-0875_RLatLon0.03_PT026H.grib2 2026-05-03 18:16 1.1M
20260503T12Z_MSC_CAPS_AirTemp_IsbL-0900_RLatLon0.03_PT026H.grib2 2026-05-03 18:16 1.1M
20260503T12Z_MSC_CAPS_AirTemp_IsbL-0925_RLatLon0.03_PT026H.grib2 2026-05-03 18:16 1.1M
20260503T12Z_MSC_CAPS_AirTemp_IsbL-0950_RLatLon0.03_PT026H.grib2 2026-05-03 18:16 1.1M
20260503T12Z_MSC_CAPS_AirTemp_IsbL-0970_RLatLon0.03_PT026H.grib2 2026-05-03 18:16 1.1M
20260503T12Z_MSC_CAPS_AirTemp_IsbL-0985_RLatLon0.03_PT026H.grib2 2026-05-03 18:16 1.1M
20260503T12Z_MSC_CAPS_AirTemp_IsbL-1000_RLatLon0.03_PT026H.grib2 2026-05-03 18:16 1.1M
20260503T12Z_MSC_CAPS_AirTemp_IsbL-1015_RLatLon0.03_PT026H.grib2 2026-05-03 18:16 1.1M
20260503T12Z_MSC_CAPS_Albedo_Sfc_RLatLon0.03_PT026H.grib2 2026-05-03 18:16 2.7M
20260503T12Z_MSC_CAPS_CAPE_Sfc_RLatLon0.03_PT026H.grib2 2026-05-03 18:16 225K
20260503T12Z_MSC_CAPS_CloudWater_EAtm_RLatLon0.03_PT026H.grib2 2026-05-03 18:16 1.5M
20260503T12Z_MSC_CAPS_ConvectivePrecip-Accum_Sfc_RLatLon0.03_PT026H.grib2 2026-05-03 18:16 4.2M
20260503T12Z_MSC_CAPS_DewPointDepression_AGL-120m_RLatLon0.03_PT026H.grib2 2026-05-03 18:16 2.0M
20260503T12Z_MSC_CAPS_DewPointDepression_AGL-2m_RLatLon0.03_PT026H.grib2 2026-05-03 18:16 2.1M
20260503T12Z_MSC_CAPS_DewPointDepression_AGL-40m_RLatLon0.03_PT026H.grib2 2026-05-03 18:16 2.1M
20260503T12Z_MSC_CAPS_DewPointDepression_AGL-80m_RLatLon0.03_PT026H.grib2 2026-05-03 18:16 2.1M
20260503T12Z_MSC_CAPS_DewPointDepression_IsbL-0050_RLatLon0.03_PT026H.grib2 2026-05-03 18:16 5.8K
20260503T12Z_MSC_CAPS_DewPointDepression_IsbL-0100_RLatLon0.03_PT026H.grib2 2026-05-03 18:16 93K
20260503T12Z_MSC_CAPS_DewPointDepression_IsbL-0150_RLatLon0.03_PT026H.grib2 2026-05-03 18:16 89K
20260503T12Z_MSC_CAPS_DewPointDepression_IsbL-0175_RLatLon0.03_PT026H.grib2 2026-05-03 18:16 213K
20260503T12Z_MSC_CAPS_DewPointDepression_IsbL-0200_RLatLon0.03_PT026H.grib2 2026-05-03 18:16 392K
20260503T12Z_MSC_CAPS_DewPointDepression_IsbL-0225_RLatLon0.03_PT026H.grib2 2026-05-03 18:16 663K
20260503T12Z_MSC_CAPS_DewPointDepression_IsbL-0250_RLatLon0.03_PT026H.grib2 2026-05-03 18:16 853K
20260503T12Z_MSC_CAPS_DewPointDepression_IsbL-0275_RLatLon0.03_PT026H.grib2 2026-05-03 18:16 1.0M
20260503T12Z_MSC_CAPS_DewPointDepression_IsbL-0300_RLatLon0.03_PT026H.grib2 2026-05-03 18:16 1.0M
20260503T12Z_MSC_CAPS_DewPointDepression_IsbL-0350_RLatLon0.03_PT026H.grib2 2026-05-03 18:16 1.1M
20260503T12Z_MSC_CAPS_DewPointDepression_IsbL-0400_RLatLon0.03_PT026H.grib2 2026-05-03 18:16 1.1M
20260503T12Z_MSC_CAPS_DewPointDepression_IsbL-0450_RLatLon0.03_PT026H.grib2 2026-05-03 18:16 1.1M
20260503T12Z_MSC_CAPS_DewPointDepression_IsbL-0500_RLatLon0.03_PT026H.grib2 2026-05-03 18:16 1.2M
20260503T12Z_MSC_CAPS_DewPointDepression_IsbL-0550_RLatLon0.03_PT026H.grib2 2026-05-03 18:16 1.2M
20260503T12Z_MSC_CAPS_DewPointDepression_IsbL-0600_RLatLon0.03_PT026H.grib2 2026-05-03 18:16 1.2M
20260503T12Z_MSC_CAPS_DewPointDepression_IsbL-0650_RLatLon0.03_PT026H.grib2 2026-05-03 18:16 1.3M
20260503T12Z_MSC_CAPS_DewPointDepression_IsbL-0700_RLatLon0.03_PT026H.grib2 2026-05-03 18:16 1.3M
20260503T12Z_MSC_CAPS_DewPointDepression_IsbL-0750_RLatLon0.03_PT026H.grib2 2026-05-03 18:16 1.3M
20260503T12Z_MSC_CAPS_DewPointDepression_IsbL-0800_RLatLon0.03_PT026H.grib2 2026-05-03 18:16 1.3M
20260503T12Z_MSC_CAPS_DewPointDepression_IsbL-0850_RLatLon0.03_PT026H.grib2 2026-05-03 18:16 1.4M
20260503T12Z_MSC_CAPS_DewPointDepression_IsbL-0875_RLatLon0.03_PT026H.grib2 2026-05-03 18:16 1.4M
20260503T12Z_MSC_CAPS_DewPointDepression_IsbL-0900_RLatLon0.03_PT026H.grib2 2026-05-03 18:16 1.4M
20260503T12Z_MSC_CAPS_DewPointDepression_IsbL-0925_RLatLon0.03_PT026H.grib2 2026-05-03 18:16 1.4M
20260503T12Z_MSC_CAPS_DewPointDepression_IsbL-0950_RLatLon0.03_PT026H.grib2 2026-05-03 18:16 1.4M
20260503T12Z_MSC_CAPS_DewPointDepression_IsbL-0970_RLatLon0.03_PT026H.grib2 2026-05-03 18:16 1.4M
20260503T12Z_MSC_CAPS_DewPointDepression_IsbL-0985_RLatLon0.03_PT026H.grib2 2026-05-03 18:16 1.4M
20260503T12Z_MSC_CAPS_DewPointDepression_IsbL-1000_RLatLon0.03_PT026H.grib2 2026-05-03 18:16 1.3M
20260503T12Z_MSC_CAPS_DewPointDepression_IsbL-1015_RLatLon0.03_PT026H.grib2 2026-05-03 18:16 1.3M
20260503T12Z_MSC_CAPS_DewPoint_AGL-120m_RLatLon0.03_PT026H.grib2 2026-05-03 18:16 3.6M
20260503T12Z_MSC_CAPS_DewPoint_AGL-2m_RLatLon0.03_PT026H.grib2 2026-05-03 18:16 2.2M
20260503T12Z_MSC_CAPS_DewPoint_AGL-40m_RLatLon0.03_PT026H.grib2 2026-05-03 18:16 3.7M
20260503T12Z_MSC_CAPS_DewPoint_AGL-80m_RLatLon0.03_PT026H.grib2 2026-05-03 18:16 3.7M
20260503T12Z_MSC_CAPS_DownwardLongwaveRadiationFlux-Accum_Sfc_RLatLon0.03_PT026H.grib2 2026-05-03 18:16 2.3M
20260503T12Z_MSC_CAPS_DownwardShortwaveRadiationFlux-Accum_NTAtm_RLatLon0.03_PT026H.grib2 2026-05-03 18:16 484K
20260503T12Z_MSC_CAPS_DownwardShortwaveRadiationFlux-Accum_Sfc_RLatLon0.03_PT026H.grib2 2026-05-03 18:16 3.3M
20260503T12Z_MSC_CAPS_FreezingRain-Accum_Sfc_RLatLon0.03_PT026H.grib2 2026-05-03 18:16 657K
20260503T12Z_MSC_CAPS_GeopotentialHeight_IsbL-0050_RLatLon0.03_PT026H.grib2 2026-05-03 18:16 638K
20260503T12Z_MSC_CAPS_GeopotentialHeight_IsbL-0100_RLatLon0.03_PT026H.grib2 2026-05-03 18:16 765K
20260503T12Z_MSC_CAPS_GeopotentialHeight_IsbL-0150_RLatLon0.03_PT026H.grib2 2026-05-03 18:16 613K
20260503T12Z_MSC_CAPS_GeopotentialHeight_IsbL-0175_RLatLon0.03_PT026H.grib2 2026-05-03 18:16 731K
20260503T12Z_MSC_CAPS_GeopotentialHeight_IsbL-0200_RLatLon0.03_PT026H.grib2 2026-05-03 18:16 745K
20260503T12Z_MSC_CAPS_GeopotentialHeight_IsbL-0225_RLatLon0.03_PT026H.grib2 2026-05-03 18:16 758K
20260503T12Z_MSC_CAPS_GeopotentialHeight_IsbL-0250_RLatLon0.03_PT026H.grib2 2026-05-03 18:16 768K
20260503T12Z_MSC_CAPS_GeopotentialHeight_IsbL-0275_RLatLon0.03_PT026H.grib2 2026-05-03 18:16 778K
20260503T12Z_MSC_CAPS_GeopotentialHeight_IsbL-0300_RLatLon0.03_PT026H.grib2 2026-05-03 18:16 784K
20260503T12Z_MSC_CAPS_GeopotentialHeight_IsbL-0350_RLatLon0.03_PT026H.grib2 2026-05-03 18:16 787K
20260503T12Z_MSC_CAPS_GeopotentialHeight_IsbL-0400_RLatLon0.03_PT026H.grib2 2026-05-03 18:16 783K
20260503T12Z_MSC_CAPS_GeopotentialHeight_IsbL-0450_RLatLon0.03_PT026H.grib2 2026-05-03 18:16 774K
20260503T12Z_MSC_CAPS_GeopotentialHeight_IsbL-0500_RLatLon0.03_PT026H.grib2 2026-05-03 18:16 766K
20260503T12Z_MSC_CAPS_GeopotentialHeight_IsbL-0550_RLatLon0.03_PT026H.grib2 2026-05-03 18:16 643K
20260503T12Z_MSC_CAPS_GeopotentialHeight_IsbL-0600_RLatLon0.03_PT026H.grib2 2026-05-03 18:16 640K
20260503T12Z_MSC_CAPS_GeopotentialHeight_IsbL-0650_RLatLon0.03_PT026H.grib2 2026-05-03 18:16 812K
20260503T12Z_MSC_CAPS_GeopotentialHeight_IsbL-0700_RLatLon0.03_PT026H.grib2 2026-05-03 18:16 812K
20260503T12Z_MSC_CAPS_GeopotentialHeight_IsbL-0750_RLatLon0.03_PT026H.grib2 2026-05-03 18:16 813K
20260503T12Z_MSC_CAPS_GeopotentialHeight_IsbL-0800_RLatLon0.03_PT026H.grib2 2026-05-03 18:16 894K
20260503T12Z_MSC_CAPS_GeopotentialHeight_IsbL-0850_RLatLon0.03_PT026H.grib2 2026-05-03 18:16 830K
20260503T12Z_MSC_CAPS_GeopotentialHeight_IsbL-0875_RLatLon0.03_PT026H.grib2 2026-05-03 18:16 837K
20260503T12Z_MSC_CAPS_GeopotentialHeight_IsbL-0900_RLatLon0.03_PT026H.grib2 2026-05-03 18:16 845K
20260503T12Z_MSC_CAPS_GeopotentialHeight_IsbL-0925_RLatLon0.03_PT026H.grib2 2026-05-03 18:16 839K
20260503T12Z_MSC_CAPS_GeopotentialHeight_IsbL-0950_RLatLon0.03_PT026H.grib2 2026-05-03 18:16 867K
20260503T12Z_MSC_CAPS_GeopotentialHeight_IsbL-0970_RLatLon0.03_PT026H.grib2 2026-05-03 18:16 876K
20260503T12Z_MSC_CAPS_GeopotentialHeight_IsbL-0985_RLatLon0.03_PT026H.grib2 2026-05-03 18:16 885K
20260503T12Z_MSC_CAPS_GeopotentialHeight_IsbL-1000_RLatLon0.03_PT026H.grib2 2026-05-03 18:16 894K
20260503T12Z_MSC_CAPS_GeopotentialHeight_IsbL-1015_RLatLon0.03_PT026H.grib2 2026-05-03 18:16 903K
20260503T12Z_MSC_CAPS_GeopotentialHeight_Sfc_RLatLon0.03_PT026H.grib2 2026-05-03 18:16 1.0M
20260503T12Z_MSC_CAPS_IcePellets-Accum_Sfc_RLatLon0.03_PT026H.grib2 2026-05-03 18:16 31K
20260503T12Z_MSC_CAPS_LatentHeatNetFlux_Sfc_RLatLon0.03_PT026H.grib2 2026-05-03 18:16 1.8M
20260503T12Z_MSC_CAPS_LiftedIndex-MU-VT_IsbL-0500_RLatLon0.03_PT026H.grib2 2026-05-03 18:16 3.4M
20260503T12Z_MSC_CAPS_MixedLayerThickness_Sfc_RLatLon0.03_PT026H.nc 2026-05-03 18:13 16M
20260503T12Z_MSC_CAPS_NetLongwaveRadiationFlux-Accum_Sfc_RLatLon0.03_PT026H.grib2 2026-05-03 18:16 3.0M
20260503T12Z_MSC_CAPS_NetShortwaveRadiationFlux-Accum_Sfc_RLatLon0.03_PT026H.grib2 2026-05-03 18:16 3.2M
20260503T12Z_MSC_CAPS_PlanetaryBoundaryLayerHeight_Sfc_RLatLon0.03_PT026H.grib2 2026-05-03 18:16 2.8M
20260503T12Z_MSC_CAPS_Precip-Accum_Sfc_RLatLon0.03_PT026H.grib2 2026-05-03 18:16 4.8M
20260503T12Z_MSC_CAPS_PrecipRate_Sfc_RLatLon0.03_PT026H.grib2 2026-05-03 18:16 613K
20260503T12Z_MSC_CAPS_PrecipType-Instant_Sfc_RLatLon0.03_PT026H.grib2 2026-05-03 18:16 1.9M
20260503T12Z_MSC_CAPS_Pressure_MSL_RLatLon0.03_PT026H.grib2 2026-05-03 18:16 928K
20260503T12Z_MSC_CAPS_Pressure_Sfc_RLatLon0.03_PT026H.grib2 2026-05-03 18:16 1.2M
20260503T12Z_MSC_CAPS_RadiativeTemp_Sfc_RLatLon0.03_PT026H.grib2 2026-05-03 18:16 2.1M
20260503T12Z_MSC_CAPS_Rain-Accum_Sfc_RLatLon0.03_PT026H.grib2 2026-05-03 18:16 2.4M
20260503T12Z_MSC_CAPS_RelativeHumidity_AGL-120m_RLatLon0.03_PT026H.grib2 2026-05-03 18:16 2.8M
20260503T12Z_MSC_CAPS_RelativeHumidity_AGL-2m_RLatLon0.03_PT026H.grib2 2026-05-03 18:16 2.9M
20260503T12Z_MSC_CAPS_RelativeHumidity_AGL-40m_RLatLon0.03_PT026H.grib2 2026-05-03 18:16 2.9M
20260503T12Z_MSC_CAPS_RelativeHumidity_AGL-80m_RLatLon0.03_PT026H.grib2 2026-05-03 18:16 2.8M
20260503T12Z_MSC_CAPS_RelativeHumidity_IsbL-0050_RLatLon0.03_PT026H.grib2 2026-05-03 18:16 1.0M
20260503T12Z_MSC_CAPS_RelativeHumidity_IsbL-0100_RLatLon0.03_PT026H.grib2 2026-05-03 18:16 882K
20260503T12Z_MSC_CAPS_RelativeHumidity_IsbL-0150_RLatLon0.03_PT026H.grib2 2026-05-03 18:16 616K
20260503T12Z_MSC_CAPS_RelativeHumidity_IsbL-0175_RLatLon0.03_PT026H.grib2 2026-05-03 18:16 491K
20260503T12Z_MSC_CAPS_RelativeHumidity_IsbL-0200_RLatLon0.03_PT026H.grib2 2026-05-03 18:16 653K
20260503T12Z_MSC_CAPS_RelativeHumidity_IsbL-0225_RLatLon0.03_PT026H.grib2 2026-05-03 18:16 884K
20260503T12Z_MSC_CAPS_RelativeHumidity_IsbL-0250_RLatLon0.03_PT026H.grib2 2026-05-03 18:16 1.1M
20260503T12Z_MSC_CAPS_RelativeHumidity_IsbL-0275_RLatLon0.03_PT026H.grib2 2026-05-03 18:16 1.4M
20260503T12Z_MSC_CAPS_RelativeHumidity_IsbL-0300_RLatLon0.03_PT026H.grib2 2026-05-03 18:16 1.7M
20260503T12Z_MSC_CAPS_RelativeHumidity_IsbL-0350_RLatLon0.03_PT026H.grib2 2026-05-03 18:16 1.9M
20260503T12Z_MSC_CAPS_RelativeHumidity_IsbL-0400_RLatLon0.03_PT026H.grib2 2026-05-03 18:16 2.1M
20260503T12Z_MSC_CAPS_RelativeHumidity_IsbL-0450_RLatLon0.03_PT026H.grib2 2026-05-03 18:16 2.2M
20260503T12Z_MSC_CAPS_RelativeHumidity_IsbL-0500_RLatLon0.03_PT026H.grib2 2026-05-03 18:16 2.2M
20260503T12Z_MSC_CAPS_RelativeHumidity_IsbL-0550_RLatLon0.03_PT026H.grib2 2026-05-03 18:16 2.1M
20260503T12Z_MSC_CAPS_RelativeHumidity_IsbL-0600_RLatLon0.03_PT026H.grib2 2026-05-03 18:16 2.3M
20260503T12Z_MSC_CAPS_RelativeHumidity_IsbL-0650_RLatLon0.03_PT026H.grib2 2026-05-03 18:16 2.3M
20260503T12Z_MSC_CAPS_RelativeHumidity_IsbL-0700_RLatLon0.03_PT026H.grib2 2026-05-03 18:16 2.3M
20260503T12Z_MSC_CAPS_RelativeHumidity_IsbL-0750_RLatLon0.03_PT026H.grib2 2026-05-03 18:16 2.4M
20260503T12Z_MSC_CAPS_RelativeHumidity_IsbL-0800_RLatLon0.03_PT026H.grib2 2026-05-03 18:16 2.4M
20260503T12Z_MSC_CAPS_RelativeHumidity_IsbL-0850_RLatLon0.03_PT026H.grib2 2026-05-03 18:16 2.5M
20260503T12Z_MSC_CAPS_RelativeHumidity_IsbL-0875_RLatLon0.03_PT026H.grib2 2026-05-03 18:16 2.6M
20260503T12Z_MSC_CAPS_RelativeHumidity_IsbL-0900_RLatLon0.03_PT026H.grib2 2026-05-03 18:16 2.6M
20260503T12Z_MSC_CAPS_RelativeHumidity_IsbL-0925_RLatLon0.03_PT026H.grib2 2026-05-03 18:16 2.7M
20260503T12Z_MSC_CAPS_RelativeHumidity_IsbL-0950_RLatLon0.03_PT026H.grib2 2026-05-03 18:16 2.7M
20260503T12Z_MSC_CAPS_RelativeHumidity_IsbL-0970_RLatLon0.03_PT026H.grib2 2026-05-03 18:16 2.8M
20260503T12Z_MSC_CAPS_RelativeHumidity_IsbL-0985_RLatLon0.03_PT026H.grib2 2026-05-03 18:16 2.8M
20260503T12Z_MSC_CAPS_RelativeHumidity_IsbL-1000_RLatLon0.03_PT026H.grib2 2026-05-03 18:16 2.9M
20260503T12Z_MSC_CAPS_RelativeHumidity_IsbL-1015_RLatLon0.03_PT026H.grib2 2026-05-03 18:16 2.9M
20260503T12Z_MSC_CAPS_Runoff-Accum_Sfc_RLatLon0.03_PT026H.grib2 2026-05-03 18:16 264K
20260503T12Z_MSC_CAPS_SeaIceAreaFraction_Sfc_RLatLon0.03_PT026H.nc 2026-05-03 18:13 15M
20260503T12Z_MSC_CAPS_SeaIceCompressiveStrength_Sfc_RLatLon0.03_PT026H.nc 2026-05-03 18:13 15M
20260503T12Z_MSC_CAPS_SeaIceDivergence_Sfc_RLatLon0.03_PT026H.nc 2026-05-03 18:13 15M
20260503T12Z_MSC_CAPS_SeaIceInternalPressure_Sfc_RLatLon0.03_PT026H.nc 2026-05-03 18:13 15M
20260503T12Z_MSC_CAPS_SeaIceShear_Sfc_RLatLon0.03_PT026H.nc 2026-05-03 18:13 14M
20260503T12Z_MSC_CAPS_SeaIceSnowTemp_Sfc_RLatLon0.03_PT026H.nc 2026-05-03 18:13 14M
20260503T12Z_MSC_CAPS_SeaIceSnowVolume_Sfc_RLatLon0.03_PT026H.nc 2026-05-03 18:13 15M
20260503T12Z_MSC_CAPS_SeaIceVelocityX_Sfc_RLatLon0.03_PT026H.nc 2026-05-03 18:13 15M
20260503T12Z_MSC_CAPS_SeaIceVelocityY_Sfc_RLatLon0.03_PT026H.nc 2026-05-03 18:13 15M
20260503T12Z_MSC_CAPS_SeaIceVolume_Sfc_RLatLon0.03_PT026H.nc 2026-05-03 18:13 15M
20260503T12Z_MSC_CAPS_SeaSurfaceHeight_Sfc_RLatLon0.03_PT026H.nc 2026-05-03 18:13 16M
20260503T12Z_MSC_CAPS_SeaWaterSalinity_DBS-0.5m_RLatLon0.03_PT026H.nc 2026-05-03 18:13 16M
20260503T12Z_MSC_CAPS_SeaWaterSalinity_DBS-all_RLatLon0.03_PT026H.nc 2026-05-03 18:13 107M
20260503T12Z_MSC_CAPS_SeaWaterTemp_DBS-0.5m_RLatLon0.03_PT026H.nc 2026-05-03 18:13 14M
20260503T12Z_MSC_CAPS_SeaWaterTemp_DBS-all_RLatLon0.03_PT026H.nc 2026-05-03 18:13 88M
20260503T12Z_MSC_CAPS_SeaWaterVelocityX_DBS-0.5m_RLatLon0.03_PT026H.nc 2026-05-03 18:13 17M
20260503T12Z_MSC_CAPS_SeaWaterVelocityX_DBS-all_RLatLon0.03_PT026H.nc 2026-05-03 18:13 205M
20260503T12Z_MSC_CAPS_SeaWaterVelocityY_DBS-0.5m_RLatLon0.03_PT026H.nc 2026-05-03 18:13 17M
20260503T12Z_MSC_CAPS_SeaWaterVelocityY_DBS-all_RLatLon0.03_PT026H.nc 2026-05-03 18:13 213M
20260503T12Z_MSC_CAPS_SensibleHeatNetFlux_Sfc_RLatLon0.03_PT026H.grib2 2026-05-03 18:16 2.1M
20260503T12Z_MSC_CAPS_ShowalterIndex_IsbL-0500_RLatLon0.03_PT026H.grib2 2026-05-03 18:16 4.3M
20260503T12Z_MSC_CAPS_Snow-Accum_Sfc_RLatLon0.03_PT026H.grib2 2026-05-03 18:16 3.7M
20260503T12Z_MSC_CAPS_SnowDensity_Sfc_RLatLon0.03_PT026H.grib2 2026-05-03 18:16 1.3M
20260503T12Z_MSC_CAPS_SnowDepthWaterEquivalent_Sfc_RLatLon0.03_PT026H.grib2 2026-05-03 18:16 661K
20260503T12Z_MSC_CAPS_SnowDepth_Sfc_RLatLon0.03_PT026H.grib2 2026-05-03 18:16 1.1M
20260503T12Z_MSC_CAPS_SoilTemp_DBS-0to10cm_RLatLon0.03_PT026H.grib2 2026-05-03 18:16 1.6M
20260503T12Z_MSC_CAPS_SoilTemp_Sfc_RLatLon0.03_PT026H.grib2 2026-05-03 18:16 1.8M
20260503T12Z_MSC_CAPS_SoilVolumetricIceContent_Sfc_RLatLon0.03_PT026H.grib2 2026-05-03 18:16 1.4M
20260503T12Z_MSC_CAPS_SoilVolumetricWaterContent_DBS-0to10cm_RLatLon0.03_PT026H.grib2 2026-05-03 18:16 1.3M
20260503T12Z_MSC_CAPS_SoilVolumetricWaterContent_DBS-0to1cm_RLatLon0.03_PT026H.grib2 2026-05-03 18:16 1.7M
20260503T12Z_MSC_CAPS_SpecificHumidity_AGL-120m_RLatLon0.03_PT026H.grib2 2026-05-03 18:16 1.8M
20260503T12Z_MSC_CAPS_SpecificHumidity_AGL-2m_RLatLon0.03_PT026H.grib2 2026-05-03 18:16 1.7M
20260503T12Z_MSC_CAPS_SpecificHumidity_AGL-40m_RLatLon0.03_PT026H.grib2 2026-05-03 18:16 1.9M
20260503T12Z_MSC_CAPS_SpecificHumidity_AGL-80m_RLatLon0.03_PT026H.grib2 2026-05-03 18:16 1.8M
20260503T12Z_MSC_CAPS_SpecificHumidity_IsbL-0050_RLatLon0.03_PT026H.grib2 2026-05-03 18:16 904K
20260503T12Z_MSC_CAPS_SpecificHumidity_IsbL-0100_RLatLon0.03_PT026H.grib2 2026-05-03 18:16 1.0M
20260503T12Z_MSC_CAPS_SpecificHumidity_IsbL-0150_RLatLon0.03_PT026H.grib2 2026-05-03 18:16 1.0M
20260503T12Z_MSC_CAPS_SpecificHumidity_IsbL-0175_RLatLon0.03_PT026H.grib2 2026-05-03 18:16 1.0M
20260503T12Z_MSC_CAPS_SpecificHumidity_IsbL-0200_RLatLon0.03_PT026H.grib2 2026-05-03 18:16 893K
20260503T12Z_MSC_CAPS_SpecificHumidity_IsbL-0225_RLatLon0.03_PT026H.grib2 2026-05-03 18:16 860K
20260503T12Z_MSC_CAPS_SpecificHumidity_IsbL-0250_RLatLon0.03_PT026H.grib2 2026-05-03 18:16 1.1M
20260503T12Z_MSC_CAPS_SpecificHumidity_IsbL-0275_RLatLon0.03_PT026H.grib2 2026-05-03 18:16 1.1M
20260503T12Z_MSC_CAPS_SpecificHumidity_IsbL-0300_RLatLon0.03_PT026H.grib2 2026-05-03 18:16 1.0M
20260503T12Z_MSC_CAPS_SpecificHumidity_IsbL-0350_RLatLon0.03_PT026H.grib2 2026-05-03 18:16 967K
20260503T12Z_MSC_CAPS_SpecificHumidity_IsbL-0400_RLatLon0.03_PT026H.grib2 2026-05-03 18:16 961K
20260503T12Z_MSC_CAPS_SpecificHumidity_IsbL-0450_RLatLon0.03_PT026H.grib2 2026-05-03 18:16 1.3M
20260503T12Z_MSC_CAPS_SpecificHumidity_IsbL-0500_RLatLon0.03_PT026H.grib2 2026-05-03 18:16 1.1M
20260503T12Z_MSC_CAPS_SpecificHumidity_IsbL-0550_RLatLon0.03_PT026H.grib2 2026-05-03 18:16 1.2M
20260503T12Z_MSC_CAPS_SpecificHumidity_IsbL-0600_RLatLon0.03_PT026H.grib2 2026-05-03 18:16 1.4M
20260503T12Z_MSC_CAPS_SpecificHumidity_IsbL-0650_RLatLon0.03_PT026H.grib2 2026-05-03 18:16 1.5M
20260503T12Z_MSC_CAPS_SpecificHumidity_IsbL-0700_RLatLon0.03_PT026H.grib2 2026-05-03 18:16 1.3M
20260503T12Z_MSC_CAPS_SpecificHumidity_IsbL-0750_RLatLon0.03_PT026H.grib2 2026-05-03 18:16 1.4M
20260503T12Z_MSC_CAPS_SpecificHumidity_IsbL-0800_RLatLon0.03_PT026H.grib2 2026-05-03 18:16 1.5M
20260503T12Z_MSC_CAPS_SpecificHumidity_IsbL-0850_RLatLon0.03_PT026H.grib2 2026-05-03 18:16 1.7M
20260503T12Z_MSC_CAPS_SpecificHumidity_IsbL-0875_RLatLon0.03_PT026H.grib2 2026-05-03 18:16 1.8M
20260503T12Z_MSC_CAPS_SpecificHumidity_IsbL-0900_RLatLon0.03_PT026H.grib2 2026-05-03 18:16 1.9M
20260503T12Z_MSC_CAPS_SpecificHumidity_IsbL-0925_RLatLon0.03_PT026H.grib2 2026-05-03 18:16 1.9M
20260503T12Z_MSC_CAPS_SpecificHumidity_IsbL-0950_RLatLon0.03_PT026H.grib2 2026-05-03 18:16 2.0M
20260503T12Z_MSC_CAPS_SpecificHumidity_IsbL-0970_RLatLon0.03_PT026H.grib2 2026-05-03 18:16 2.0M
20260503T12Z_MSC_CAPS_SpecificHumidity_IsbL-0985_RLatLon0.03_PT026H.grib2 2026-05-03 18:16 2.1M
20260503T12Z_MSC_CAPS_SpecificHumidity_IsbL-1000_RLatLon0.03_PT026H.grib2 2026-05-03 18:16 1.7M
20260503T12Z_MSC_CAPS_SpecificHumidity_IsbL-1015_RLatLon0.03_PT026H.grib2 2026-05-03 18:16 1.7M
20260503T12Z_MSC_CAPS_SpecificHumidity_Sfc_RLatLon0.03_PT026H.grib2 2026-05-03 18:16 2.0M
20260503T12Z_MSC_CAPS_StormRelativeHelicity_Sfc_RLatLon0.03_PT026H.grib2 2026-05-03 18:16 3.3M
20260503T12Z_MSC_CAPS_Thickness_IsbL-1000to0500_RLatLon0.03_PT026H.grib2 2026-05-03 18:16 464K
20260503T12Z_MSC_CAPS_TotalCloudCover_Sfc_RLatLon0.03_PT026H.grib2 2026-05-03 18:16 3.5M
20260503T12Z_MSC_CAPS_TurboclineDepth_Sfc_RLatLon0.03_PT026H.nc 2026-05-03 18:13 16M
20260503T12Z_MSC_CAPS_UpwardLongwaveRadiationFlux_NTAtm_RLatLon0.03_PT026H.grib2 2026-05-03 18:16 2.9M
20260503T12Z_MSC_CAPS_UpwardShortwaveRadiationFlux_NTAtm_RLatLon0.03_PT026H.grib2 2026-05-03 18:16 2.4M
20260503T12Z_MSC_CAPS_VerticalVelocity_IsbL-0250_RLatLon0.03_PT026H.grib2 2026-05-03 18:16 925K
20260503T12Z_MSC_CAPS_VerticalVelocity_IsbL-0500_RLatLon0.03_PT026H.grib2 2026-05-03 18:16 1.1M
20260503T12Z_MSC_CAPS_VerticalVelocity_IsbL-0700_RLatLon0.03_PT026H.grib2 2026-05-03 18:16 964K
20260503T12Z_MSC_CAPS_VerticalVelocity_IsbL-0850_RLatLon0.03_PT026H.grib2 2026-05-03 18:16 1.1M
20260503T12Z_MSC_CAPS_VerticalVelocity_IsbL-1000_RLatLon0.03_PT026H.grib2 2026-05-03 18:16 1.4M
20260503T12Z_MSC_CAPS_WindDir_AGL-10m_RLatLon0.03_PT026H.grib2 2026-05-03 18:16 2.4M
20260503T12Z_MSC_CAPS_WindDir_AGL-120m_RLatLon0.03_PT026H.grib2 2026-05-03 18:16 1.3M
20260503T12Z_MSC_CAPS_WindDir_AGL-40m_RLatLon0.03_PT026H.grib2 2026-05-03 18:16 1.4M
20260503T12Z_MSC_CAPS_WindDir_AGL-80m_RLatLon0.03_PT026H.grib2 2026-05-03 18:16 1.3M
20260503T12Z_MSC_CAPS_WindDir_IsbL-0050_RLatLon0.03_PT026H.grib2 2026-05-03 18:16 1.0M
20260503T12Z_MSC_CAPS_WindDir_IsbL-0100_RLatLon0.03_PT026H.grib2 2026-05-03 18:16 1.0M
20260503T12Z_MSC_CAPS_WindDir_IsbL-0150_RLatLon0.03_PT026H.grib2 2026-05-03 18:16 1.1M
20260503T12Z_MSC_CAPS_WindDir_IsbL-0175_RLatLon0.03_PT026H.grib2 2026-05-03 18:16 1.1M
20260503T12Z_MSC_CAPS_WindDir_IsbL-0200_RLatLon0.03_PT026H.grib2 2026-05-03 18:16 1.1M
20260503T12Z_MSC_CAPS_WindDir_IsbL-0225_RLatLon0.03_PT026H.grib2 2026-05-03 18:16 1.1M
20260503T12Z_MSC_CAPS_WindDir_IsbL-0250_RLatLon0.03_PT026H.grib2 2026-05-03 18:16 1.1M
20260503T12Z_MSC_CAPS_WindDir_IsbL-0275_RLatLon0.03_PT026H.grib2 2026-05-03 18:16 1.1M
20260503T12Z_MSC_CAPS_WindDir_IsbL-0300_RLatLon0.03_PT026H.grib2 2026-05-03 18:16 1.1M
20260503T12Z_MSC_CAPS_WindDir_IsbL-0350_RLatLon0.03_PT026H.grib2 2026-05-03 18:16 1.1M
20260503T12Z_MSC_CAPS_WindDir_IsbL-0400_RLatLon0.03_PT026H.grib2 2026-05-03 18:16 1.1M
20260503T12Z_MSC_CAPS_WindDir_IsbL-0450_RLatLon0.03_PT026H.grib2 2026-05-03 18:16 1.2M
20260503T12Z_MSC_CAPS_WindDir_IsbL-0500_RLatLon0.03_PT026H.grib2 2026-05-03 18:16 1.2M
20260503T12Z_MSC_CAPS_WindDir_IsbL-0550_RLatLon0.03_PT026H.grib2 2026-05-03 18:16 1.2M
20260503T12Z_MSC_CAPS_WindDir_IsbL-0600_RLatLon0.03_PT026H.grib2 2026-05-03 18:16 1.2M
20260503T12Z_MSC_CAPS_WindDir_IsbL-0650_RLatLon0.03_PT026H.grib2 2026-05-03 18:16 1.3M
20260503T12Z_MSC_CAPS_WindDir_IsbL-0700_RLatLon0.03_PT026H.grib2 2026-05-03 18:16 1.4M
20260503T12Z_MSC_CAPS_WindDir_IsbL-0750_RLatLon0.03_PT026H.grib2 2026-05-03 18:16 1.5M
20260503T12Z_MSC_CAPS_WindDir_IsbL-0800_RLatLon0.03_PT026H.grib2 2026-05-03 18:16 1.6M
20260503T12Z_MSC_CAPS_WindDir_IsbL-0850_RLatLon0.03_PT026H.grib2 2026-05-03 18:16 1.7M
20260503T12Z_MSC_CAPS_WindDir_IsbL-0875_RLatLon0.03_PT026H.grib2 2026-05-03 18:16 1.8M
20260503T12Z_MSC_CAPS_WindDir_IsbL-0900_RLatLon0.03_PT026H.grib2 2026-05-03 18:16 1.9M
20260503T12Z_MSC_CAPS_WindDir_IsbL-0925_RLatLon0.03_PT026H.grib2 2026-05-03 18:16 1.9M
20260503T12Z_MSC_CAPS_WindDir_IsbL-0950_RLatLon0.03_PT026H.grib2 2026-05-03 18:16 2.0M
20260503T12Z_MSC_CAPS_WindDir_IsbL-0970_RLatLon0.03_PT026H.grib2 2026-05-03 18:16 2.1M
20260503T12Z_MSC_CAPS_WindDir_IsbL-0985_RLatLon0.03_PT026H.grib2 2026-05-03 18:16 2.2M
20260503T12Z_MSC_CAPS_WindDir_IsbL-1000_RLatLon0.03_PT026H.grib2 2026-05-03 18:16 2.3M
20260503T12Z_MSC_CAPS_WindDir_IsbL-1015_RLatLon0.03_PT026H.grib2 2026-05-03 18:16 2.4M
20260503T12Z_MSC_CAPS_WindGust-Max_AGL-10m_RLatLon0.03_PT026H.grib2 2026-05-03 18:16 2.5M
20260503T12Z_MSC_CAPS_WindGust-Min_AGL-10m_RLatLon0.03_PT026H.grib2 2026-05-03 18:16 2.4M
20260503T12Z_MSC_CAPS_WindGust_AGL-10m_RLatLon0.03_PT026H.grib2 2026-05-03 18:16 2.5M
20260503T12Z_MSC_CAPS_WindSpeed_AGL-10m_RLatLon0.03_PT026H.grib2 2026-05-03 18:16 2.1M
20260503T12Z_MSC_CAPS_WindSpeed_AGL-120m_RLatLon0.03_PT026H.grib2 2026-05-03 18:16 1.2M
20260503T12Z_MSC_CAPS_WindSpeed_AGL-40m_RLatLon0.03_PT026H.grib2 2026-05-03 18:16 1.2M
20260503T12Z_MSC_CAPS_WindSpeed_AGL-80m_RLatLon0.03_PT026H.grib2 2026-05-03 18:16 1.2M
20260503T12Z_MSC_CAPS_WindSpeed_IsbL-0050_RLatLon0.03_PT026H.grib2 2026-05-03 18:16 943K
20260503T12Z_MSC_CAPS_WindSpeed_IsbL-0100_RLatLon0.03_PT026H.grib2 2026-05-03 18:16 1.3M
20260503T12Z_MSC_CAPS_WindSpeed_IsbL-0150_RLatLon0.03_PT026H.grib2 2026-05-03 18:16 1.2M
20260503T12Z_MSC_CAPS_WindSpeed_IsbL-0175_RLatLon0.03_PT026H.grib2 2026-05-03 18:16 1.1M
20260503T12Z_MSC_CAPS_WindSpeed_IsbL-0200_RLatLon0.03_PT026H.grib2 2026-05-03 18:16 940K
20260503T12Z_MSC_CAPS_WindSpeed_IsbL-0225_RLatLon0.03_PT026H.grib2 2026-05-03 18:16 961K
20260503T12Z_MSC_CAPS_WindSpeed_IsbL-0250_RLatLon0.03_PT026H.grib2 2026-05-03 18:16 1.0M
20260503T12Z_MSC_CAPS_WindSpeed_IsbL-0275_RLatLon0.03_PT026H.grib2 2026-05-03 18:16 1.0M
20260503T12Z_MSC_CAPS_WindSpeed_IsbL-0300_RLatLon0.03_PT026H.grib2 2026-05-03 18:16 1.0M
20260503T12Z_MSC_CAPS_WindSpeed_IsbL-0350_RLatLon0.03_PT026H.grib2 2026-05-03 18:16 1.0M
20260503T12Z_MSC_CAPS_WindSpeed_IsbL-0400_RLatLon0.03_PT026H.grib2 2026-05-03 18:16 1.0M
20260503T12Z_MSC_CAPS_WindSpeed_IsbL-0450_RLatLon0.03_PT026H.grib2 2026-05-03 18:16 1.0M
20260503T12Z_MSC_CAPS_WindSpeed_IsbL-0500_RLatLon0.03_PT026H.grib2 2026-05-03 18:16 1.4M
20260503T12Z_MSC_CAPS_WindSpeed_IsbL-0550_RLatLon0.03_PT026H.grib2 2026-05-03 18:16 1.4M
20260503T12Z_MSC_CAPS_WindSpeed_IsbL-0600_RLatLon0.03_PT026H.grib2 2026-05-03 18:16 1.4M
20260503T12Z_MSC_CAPS_WindSpeed_IsbL-0650_RLatLon0.03_PT026H.grib2 2026-05-03 18:16 1.5M
20260503T12Z_MSC_CAPS_WindSpeed_IsbL-0700_RLatLon0.03_PT026H.grib2 2026-05-03 18:16 1.5M
20260503T12Z_MSC_CAPS_WindSpeed_IsbL-0750_RLatLon0.03_PT026H.grib2 2026-05-03 18:16 1.6M
20260503T12Z_MSC_CAPS_WindSpeed_IsbL-0800_RLatLon0.03_PT026H.grib2 2026-05-03 18:16 1.6M
20260503T12Z_MSC_CAPS_WindSpeed_IsbL-0850_RLatLon0.03_PT026H.grib2 2026-05-03 18:16 1.7M
20260503T12Z_MSC_CAPS_WindSpeed_IsbL-0875_RLatLon0.03_PT026H.grib2 2026-05-03 18:16 1.8M
20260503T12Z_MSC_CAPS_WindSpeed_IsbL-0900_RLatLon0.03_PT026H.grib2 2026-05-03 18:16 1.8M
20260503T12Z_MSC_CAPS_WindSpeed_IsbL-0925_RLatLon0.03_PT026H.grib2 2026-05-03 18:16 1.8M
20260503T12Z_MSC_CAPS_WindSpeed_IsbL-0950_RLatLon0.03_PT026H.grib2 2026-05-03 18:16 1.9M
20260503T12Z_MSC_CAPS_WindSpeed_IsbL-0970_RLatLon0.03_PT026H.grib2 2026-05-03 18:16 2.0M
20260503T12Z_MSC_CAPS_WindSpeed_IsbL-0985_RLatLon0.03_PT026H.grib2 2026-05-03 18:16 2.0M
20260503T12Z_MSC_CAPS_WindSpeed_IsbL-1000_RLatLon0.03_PT026H.grib2 2026-05-03 18:16 2.1M
20260503T12Z_MSC_CAPS_WindSpeed_IsbL-1015_RLatLon0.03_PT026H.grib2 2026-05-03 18:16 2.1M
20260503T12Z_MSC_CAPS_WindU_AGL-10m_RLatLon0.03_PT026H.grib2 2026-05-03 18:16 2.0M
20260503T12Z_MSC_CAPS_WindU_AGL-120m_RLatLon0.03_PT026H.grib2 2026-05-03 18:16 1.2M
20260503T12Z_MSC_CAPS_WindU_AGL-40m_RLatLon0.03_PT026H.grib2 2026-05-03 18:16 1.2M
20260503T12Z_MSC_CAPS_WindU_AGL-80m_RLatLon0.03_PT026H.grib2 2026-05-03 18:16 1.2M
20260503T12Z_MSC_CAPS_WindU_IsbL-0050_RLatLon0.03_PT026H.grib2 2026-05-03 18:16 939K
20260503T12Z_MSC_CAPS_WindU_IsbL-0100_RLatLon0.03_PT026H.grib2 2026-05-03 18:16 812K
20260503T12Z_MSC_CAPS_WindU_IsbL-0150_RLatLon0.03_PT026H.grib2 2026-05-03 18:16 930K
20260503T12Z_MSC_CAPS_WindU_IsbL-0175_RLatLon0.03_PT026H.grib2 2026-05-03 18:16 730K
20260503T12Z_MSC_CAPS_WindU_IsbL-0200_RLatLon0.03_PT026H.grib2 2026-05-03 18:16 874K
20260503T12Z_MSC_CAPS_WindU_IsbL-0225_RLatLon0.03_PT026H.grib2 2026-05-03 18:16 896K
20260503T12Z_MSC_CAPS_WindU_IsbL-0250_RLatLon0.03_PT026H.grib2 2026-05-03 18:16 700K
20260503T12Z_MSC_CAPS_WindU_IsbL-0275_RLatLon0.03_PT026H.grib2 2026-05-03 18:16 920K
20260503T12Z_MSC_CAPS_WindU_IsbL-0300_RLatLon0.03_PT026H.grib2 2026-05-03 18:16 925K
20260503T12Z_MSC_CAPS_WindU_IsbL-0350_RLatLon0.03_PT026H.grib2 2026-05-03 18:16 938K
20260503T12Z_MSC_CAPS_WindU_IsbL-0400_RLatLon0.03_PT026H.grib2 2026-05-03 18:16 949K
20260503T12Z_MSC_CAPS_WindU_IsbL-0450_RLatLon0.03_PT026H.grib2 2026-05-03 18:16 972K
20260503T12Z_MSC_CAPS_WindU_IsbL-0500_RLatLon0.03_PT026H.grib2 2026-05-03 18:16 1.0M
20260503T12Z_MSC_CAPS_WindU_IsbL-0550_RLatLon0.03_PT026H.grib2 2026-05-03 18:16 928K
20260503T12Z_MSC_CAPS_WindU_IsbL-0600_RLatLon0.03_PT026H.grib2 2026-05-03 18:16 958K
20260503T12Z_MSC_CAPS_WindU_IsbL-0650_RLatLon0.03_PT026H.grib2 2026-05-03 18:16 1.0M
20260503T12Z_MSC_CAPS_WindU_IsbL-0700_RLatLon0.03_PT026H.grib2 2026-05-03 18:16 1.0M
20260503T12Z_MSC_CAPS_WindU_IsbL-0750_RLatLon0.03_PT026H.grib2 2026-05-03 18:16 1.1M
20260503T12Z_MSC_CAPS_WindU_IsbL-0800_RLatLon0.03_PT026H.grib2 2026-05-03 18:16 1.1M
20260503T12Z_MSC_CAPS_WindU_IsbL-0850_RLatLon0.03_PT026H.grib2 2026-05-03 18:16 1.2M
20260503T12Z_MSC_CAPS_WindU_IsbL-0875_RLatLon0.03_PT026H.grib2 2026-05-03 18:16 1.2M
20260503T12Z_MSC_CAPS_WindU_IsbL-0900_RLatLon0.03_PT026H.grib2 2026-05-03 18:16 1.3M
20260503T12Z_MSC_CAPS_WindU_IsbL-0925_RLatLon0.03_PT026H.grib2 2026-05-03 18:16 1.3M
20260503T12Z_MSC_CAPS_WindU_IsbL-0950_RLatLon0.03_PT026H.grib2 2026-05-03 18:16 1.4M
20260503T12Z_MSC_CAPS_WindU_IsbL-0970_RLatLon0.03_PT026H.grib2 2026-05-03 18:16 1.4M
20260503T12Z_MSC_CAPS_WindU_IsbL-0985_RLatLon0.03_PT026H.grib2 2026-05-03 18:16 1.8M
20260503T12Z_MSC_CAPS_WindU_IsbL-1000_RLatLon0.03_PT026H.grib2 2026-05-03 18:16 1.9M
20260503T12Z_MSC_CAPS_WindU_IsbL-1015_RLatLon0.03_PT026H.grib2 2026-05-03 18:16 2.0M
20260503T12Z_MSC_CAPS_WindV_AGL-10m_RLatLon0.03_PT026H.grib2 2026-05-03 18:16 2.0M
20260503T12Z_MSC_CAPS_WindV_AGL-120m_RLatLon0.03_PT026H.grib2 2026-05-03 18:16 916K
20260503T12Z_MSC_CAPS_WindV_AGL-40m_RLatLon0.03_PT026H.grib2 2026-05-03 18:16 1.2M
20260503T12Z_MSC_CAPS_WindV_AGL-80m_RLatLon0.03_PT026H.grib2 2026-05-03 18:16 1.2M
20260503T12Z_MSC_CAPS_WindV_IsbL-0050_RLatLon0.03_PT026H.grib2 2026-05-03 18:16 764K
20260503T12Z_MSC_CAPS_WindV_IsbL-0100_RLatLon0.03_PT026H.grib2 2026-05-03 18:16 1.0M
20260503T12Z_MSC_CAPS_WindV_IsbL-0150_RLatLon0.03_PT026H.grib2 2026-05-03 18:16 839K
20260503T12Z_MSC_CAPS_WindV_IsbL-0175_RLatLon0.03_PT026H.grib2 2026-05-03 18:16 850K
20260503T12Z_MSC_CAPS_WindV_IsbL-0200_RLatLon0.03_PT026H.grib2 2026-05-03 18:16 868K
20260503T12Z_MSC_CAPS_WindV_IsbL-0225_RLatLon0.03_PT026H.grib2 2026-05-03 18:16 892K
20260503T12Z_MSC_CAPS_WindV_IsbL-0250_RLatLon0.03_PT026H.grib2 2026-05-03 18:16 912K
20260503T12Z_MSC_CAPS_WindV_IsbL-0275_RLatLon0.03_PT026H.grib2 2026-05-03 18:16 708K
20260503T12Z_MSC_CAPS_WindV_IsbL-0300_RLatLon0.03_PT026H.grib2 2026-05-03 18:16 714K
20260503T12Z_MSC_CAPS_WindV_IsbL-0350_RLatLon0.03_PT026H.grib2 2026-05-03 18:16 725K
20260503T12Z_MSC_CAPS_WindV_IsbL-0400_RLatLon0.03_PT026H.grib2 2026-05-03 18:16 730K
20260503T12Z_MSC_CAPS_WindV_IsbL-0450_RLatLon0.03_PT026H.grib2 2026-05-03 18:16 971K
20260503T12Z_MSC_CAPS_WindV_IsbL-0500_RLatLon0.03_PT026H.grib2 2026-05-03 18:16 1.0M
20260503T12Z_MSC_CAPS_WindV_IsbL-0550_RLatLon0.03_PT026H.grib2 2026-05-03 18:16 1.0M
20260503T12Z_MSC_CAPS_WindV_IsbL-0600_RLatLon0.03_PT026H.grib2 2026-05-03 18:16 957K
20260503T12Z_MSC_CAPS_WindV_IsbL-0650_RLatLon0.03_PT026H.grib2 2026-05-03 18:16 1.0M
20260503T12Z_MSC_CAPS_WindV_IsbL-0700_RLatLon0.03_PT026H.grib2 2026-05-03 18:16 1.0M
20260503T12Z_MSC_CAPS_WindV_IsbL-0750_RLatLon0.03_PT026H.grib2 2026-05-03 18:16 1.1M
20260503T12Z_MSC_CAPS_WindV_IsbL-0800_RLatLon0.03_PT026H.grib2 2026-05-03 18:16 1.1M
20260503T12Z_MSC_CAPS_WindV_IsbL-0850_RLatLon0.03_PT026H.grib2 2026-05-03 18:16 1.2M
20260503T12Z_MSC_CAPS_WindV_IsbL-0875_RLatLon0.03_PT026H.grib2 2026-05-03 18:16 1.2M
20260503T12Z_MSC_CAPS_WindV_IsbL-0900_RLatLon0.03_PT026H.grib2 2026-05-03 18:16 1.3M
20260503T12Z_MSC_CAPS_WindV_IsbL-0925_RLatLon0.03_PT026H.grib2 2026-05-03 18:16 1.3M
20260503T12Z_MSC_CAPS_WindV_IsbL-0950_RLatLon0.03_PT026H.grib2 2026-05-03 18:16 1.4M
20260503T12Z_MSC_CAPS_WindV_IsbL-0970_RLatLon0.03_PT026H.grib2 2026-05-03 18:16 1.4M
20260503T12Z_MSC_CAPS_WindV_IsbL-0985_RLatLon0.03_PT026H.grib2 2026-05-03 18:16 1.5M
20260503T12Z_MSC_CAPS_WindV_IsbL-1000_RLatLon0.03_PT026H.grib2 2026-05-03 18:16 1.9M
20260503T12Z_MSC_CAPS_WindV_IsbL-1015_RLatLon0.03_PT026H.grib2 2026-05-03 18:16 1.9M